星链-4025 (STARLINK-4025 )

导读

STARLINK-4025是美国SpaceX公司星链计划的卫星,于2022年5月18日发射升空,属于星链星座组网卫星,旨在为全球提供低延迟、高速率的卫星互联网服务。它运行在近地轨道,依托星链大规模星座部署,助力实现全球覆盖的网络接入,服务偏远地区、移动场景等网络需求,是星链全球互联网布局的组成单元。

Basic Information
目录编号:
52696
目录名称:
STARLINK-4025
国际标识:
2022-053AS
轨道中心:
EARTH
卫星名称:
星链-4025
卫星全名:
星链-4025 (STARLINK-4025 )
卫星状态:
已陨落 最后检测时间 2024-12-16
发射日期:
2022-05-18 UTC
国别 :
美国 (US)
星等 :
--
Orbit Information
数据来源 国际轨道数据
星历时间: 2024-12-16T18:27:06+0800
轨道信息已过期548天
半长轴: 6521.778km
偏心率: 0.0002003
轨道倾角: 53.191°
近地点辐角 219.023°
升交点赤经 336.698°
平近点角 186.191°
近地点: 142.336km
远地点: 144.95km
周期: 87.359分钟
每日圈数: 16.483665
Detailed Information
固有亮度:
5
最大亮度:
2.5
卫星平台:
Starlink v1.5
覆盖范围:
全球
运营商:
太空探索技术公司
运营商所在国:
美国
制造商(研发单位):
太空探索技术公司
制造商所在国:
美国
使用方式:
暂无
Satellite Introduction
星链(Starlink)计划是由太空探索技术公司(SpaceX)提出的一个巨型低轨卫星互联网星座项目,计划在2019年至2024年间在太空搭建由约1.2万颗卫星组成的“星链”网络,其中1584颗将部署在地球上空550千米处的近地轨道,并从2020年开始工作。该卫星仍在工作。